• In Netherlands
  • List of Countries
  • For 7 days
  • Water Temperature
  • Satellite Maps
  • Weather Map
  • Weather Widgets
  • user-avatar
    Login

    Hourly Weather Kalat

    Today, 20 January, Friday

    Time Temperature Precipitation Wind Pressure Humidity
    00:00 -24°C° 0 mm 3 mps 464 mmHg 80%
    01:00 -25°C° 0 mm 3 mps 464 mmHg 79%
    02:00 -25°C° 0 mm 3 mps 464 mmHg 78%
    03:00 -25°C° 0 mm 3 mps 464 mmHg 77%
    04:00 -25°C° 0 mm 3 mps 464 mmHg 77%
    05:00 -26°C° 0 mm 3 mps 463 mmHg 76%
    06:00 -25°C° 0 mm 3 mps 464 mmHg 74%
    07:00 -24°C° 0 mm 3 mps 465 mmHg 73%
    08:00 -24°C° 0 mm 3 mps 465 mmHg 71%
    09:00 -19°C° 0 mm 3 mps 468 mmHg 66%
    10:00 -16°C° 0 mm 3 mps 471 mmHg 62%
    11:00 -12°C° 0 mm 3 mps 473 mmHg 56%
    12:00 -10°C° 0 mm 3 mps 473 mmHg 57%
    13:00 -10°C° 0 mm 3 mps 473 mmHg 59%
    14:00 -9°C° 0 mm 3 mps 473 mmHg 60%
    15:00 -12°C° 0 mm 3 mps 472 mmHg 66%
    16:00 -14°C° 0 mm 3 mps 470 mmHg 72%
    17:00 -17°C° 0 mm 2 mps 466 mmHg 79%
    18:00 -19°C° 0 mm 3 mps 466 mmHg 79%
    19:00 -22°C° 0 mm 3 mps 465 mmHg 79%
    20:00 -23°C° 0 mm 3 mps 465 mmHg 78%
    21:00 -24°C° 0 mm 4 mps 465 mmHg 76%
    22:00 -23°C° 0 mm 4 mps 466 mmHg 74%
    23:00 -23°C° 0 mm 4 mps 466 mmHg 71%

    Tomorrow, 21 January, Saturday

    Time Temperature Precipitation Wind Pressure Humidity
    00:00 -23°C° 0 mm 4 mps 466 mmHg 71%
    01:00 -23°C° 0 mm 4 mps 466 mmHg 71%
    02:00 -23°C° 0 mm 4 mps 466 mmHg 71%
    03:00 -22°C° 0 mm 4 mps 467 mmHg 72%
    04:00 -22°C° 0 mm 4 mps 467 mmHg 73%
    05:00 -20°C° 0 mm 4 mps 467 mmHg 74%
    06:00 -20°C° 0 mm 4 mps 467 mmHg 74%
    07:00 -20°C° 0 mm 4 mps 468 mmHg 74%
    08:00 -20°C° 0 mm 4 mps 468 mmHg 74%
    09:00 -17°C° 0 mm 4 mps 470 mmHg 70%
    10:00 -15°C° 0 mm 4 mps 471 mmHg 66%
    11:00 -11°C° 0 mm 4 mps 473 mmHg 62%
    12:00 -11°C° 0 mm 4 mps 473 mmHg 62%
    13:00 -10°C° 0 mm 4 mps 473 mmHg 62%
    14:00 -10°C° 0 mm 4 mps 473 mmHg 63%
    15:00 -11°C° 0 mm 4 mps 472 mmHg 66%
    16:00 -12°C° 0 mm 3 mps 471 mmHg 70%
    17:00 -13°C° 0 mm 3 mps 470 mmHg 74%
    18:00 -15°C° 0 mm 3 mps 469 mmHg 75%
    19:00 -16°C° 0 mm 3 mps 469 mmHg 75%
    20:00 -19°C° 0 mm 4 mps 468 mmHg 76%
    21:00 -19°C° 0 mm 4 mps 468 mmHg 76%
    22:00 -19°C° 0 mm 4 mps 468 mmHg 77%
    23:00 -18°C° 0 mm 4 mps 469 mmHg 77%

    Day after tomorrow, 22 January, Sunday

    Time Temperature Precipitation Wind Pressure Humidity
    00:00 -18°C° 0 mm 4 mps 469 mmHg 79%
    01:00 -18°C° 0 mm 4 mps 469 mmHg 80%
    02:00 -18°C° 0 mm 4 mps 469 mmHg 81%
    03:00 -18°C° 0.1 mm 4 mps 469 mmHg 82%
    04:00 -18°C° 0.1 mm 4 mps 469 mmHg 82%
    05:00 -18°C° 0.1 mm 4 mps 468 mmHg 83%
    06:00 -17°C° 0.1 mm 4 mps 469 mmHg 83%
    07:00 -17°C° 0.1 mm 4 mps 470 mmHg 83%
    08:00 -17°C° 0.1 mm 4 mps 470 mmHg 84%
    09:00 -15°C° 0.1 mm 4 mps 471 mmHg 81%
    10:00 -14°C° 0.1 mm 4 mps 472 mmHg 79%
    11:00 -12°C° 0.1 mm 5 mps 473 mmHg 77%
    12:00 -12°C° 0.2 mm 5 mps 473 mmHg 77%
    13:00 -11°C° 0.2 mm 4 mps 473 mmHg 77%
    14:00 -11°C° 0.2 mm 4 mps 472 mmHg 77%
    15:00 -11°C° 0.2 mm 4 mps 472 mmHg 79%
    16:00 -12°C° 0.2 mm 4 mps 472 mmHg 81%
    17:00 -12°C° 0.2 mm 3 mps 471 mmHg 83%
    18:00 -14°C° 0.2 mm 4 mps 471 mmHg 84%
    19:00 -15°C° 0.2 mm 4 mps 471 mmHg 84%
    20:00 -16°C° 0.2 mm 4 mps 471 mmHg 85%
    21:00 -16°C° 0.1 mm 4 mps 471 mmHg 85%
    22:00 -16°C° 0.1 mm 4 mps 470 mmHg 84%
    23:00 -16°C° 0.1 mm 4 mps 470 mmHg 84%

    23 January, Monday

    Time Temperature Precipitation Wind Pressure Humidity
    00:00 -17°C° 0.1 mm 4 mps 470 mmHg 84%
    01:00 -17°C° 0.1 mm 4 mps 470 mmHg 84%
    02:00 -17°C° 0.1 mm 4 mps 469 mmHg 84%
    03:00 -17°C° 0.1 mm 4 mps 469 mmHg 84%
    04:00 -17°C° 0.1 mm 4 mps 469 mmHg 84%
    05:00 -16°C° 0.1 mm 4 mps 469 mmHg 85%
    06:00 -16°C° 0.2 mm 4 mps 470 mmHg 84%
    07:00 -16°C° 0.2 mm 4 mps 470 mmHg 84%
    08:00 -16°C° 0.2 mm 4 mps 470 mmHg 84%
    09:00 -14°C° 0.2 mm 4 mps 471 mmHg 82%
    10:00 -12°C° 0.2 mm 4 mps 472 mmHg 80%
    11:00 -11°C° 0.2 mm 4 mps 473 mmHg 78%
    12:00 -11°C° 0.2 mm 4 mps 472 mmHg 78%
    13:00 -10°C° 0.2 mm 4 mps 472 mmHg 78%
    14:00 -10°C° 0.2 mm 4 mps 471 mmHg 78%
    15:00 -11°C° 0.3 mm 4 mps 471 mmHg 80%
    16:00 -11°C° 0.3 mm 4 mps 471 mmHg 83%
    17:00 -12°C° 0.3 mm 4 mps 470 mmHg 86%
    18:00 -13°C° 0.4 mm 3 mps 470 mmHg 87%
    19:00 -13°C° 0.4 mm 3 mps 470 mmHg 88%
    20:00 -14°C° 0.4 mm 3 mps 470 mmHg 89%
    21:00 -14°C° 0.3 mm 3 mps 470 mmHg 90%
    22:00 -15°C° 0.3 mm 3 mps 470 mmHg 90%
    23:00 -15°C° 0.3 mm 3 mps 470 mmHg 90%

    24 January, Tuesday

    Time Temperature Precipitation Wind Pressure Humidity
    00:00 -15°C° 0.3 mm 3 mps 470 mmHg 90%
    01:00 -15°C° 0.3 mm 3 mps 470 mmHg 91%
    02:00 -15°C° 0.3 mm 3 mps 470 mmHg 91%
    03:00 -15°C° 0.3 mm 3 mps 470 mmHg 91%
    04:00 -15°C° 0.3 mm 3 mps 470 mmHg 91%
    05:00 -15°C° 0.3 mm 3 mps 470 mmHg 91%
    06:00 -15°C° 0.2 mm 3 mps 470 mmHg 91%
    07:00 -15°C° 0.2 mm 3 mps 470 mmHg 91%
    08:00 -16°C° 0.2 mm 3 mps 471 mmHg 90%
    09:00 -14°C° 0.1 mm 3 mps 471 mmHg 86%
    10:00 -14°C° 0.1 mm 4 mps 472 mmHg 82%
    11:00 -12°C° 0.1 mm 4 mps 473 mmHg 78%
    12:00 -12°C° 0.1 mm 4 mps 473 mmHg 78%
    13:00 -11°C° 0.1 mm 4 mps 473 mmHg 77%
    14:00 -11°C° 0.1 mm 4 mps 472 mmHg 77%
    15:00 -12°C° 0.1 mm 4 mps 472 mmHg 80%
    16:00 -13°C° 0.1 mm 3 mps 471 mmHg 83%
    17:00 -13°C° 0.1 mm 3 mps 471 mmHg 86%
    18:00 -14°C° 0.1 mm 2 mps 470 mmHg 87%
    19:00 -15°C° 0.1 mm 2 mps 470 mmHg 88%
    20:00 -16°C° 0.1 mm 2 mps 469 mmHg 89%
    21:00 -16°C° 0.1 mm 2 mps 469 mmHg 88%
    22:00 -16°C° 0.1 mm 2 mps 469 mmHg 87%
    23:00 -16°C° 0.1 mm 2 mps 469 mmHg 86%

    25 January, Wednesday

    Time Temperature Precipitation Wind Pressure Humidity
    00:00 -16°C° 0.1 mm 2 mps 469 mmHg 86%
    01:00 -16°C° 0.1 mm 2 mps 468 mmHg 86%
    02:00 -16°C° 0.1 mm 2 mps 468 mmHg 86%
    03:00 -17°C° 0.1 mm 2 mps 467 mmHg 85%
    04:00 -17°C° 0.1 mm 2 mps 467 mmHg 85%
    05:00 -17°C° 0.1 mm 2 mps 466 mmHg 85%
    06:00 -16°C° 0.1 mm 2 mps 467 mmHg 84%
    07:00 -15°C° 0.1 mm 2 mps 468 mmHg 83%
    08:00 -14°C° 0.1 mm 2 mps 469 mmHg 83%
    09:00 -14°C° 0.2 mm 3 mps 470 mmHg 81%
    10:00 -12°C° 0.2 mm 3 mps 471 mmHg 80%
    11:00 -10°C° 0.2 mm 3 mps 472 mmHg 78%
    12:00 -10°C° 0.4 mm 3 mps 471 mmHg 80%
    13:00 -10°C° 0.4 mm 3 mps 471 mmHg 81%
    14:00 -10°C° 0.4 mm 3 mps 470 mmHg 83%
    15:00 -10°C° 0.4 mm 3 mps 470 mmHg 84%
    16:00 -10°C° 0.4 mm 3 mps 470 mmHg 86%
    17:00 -10°C° 0.4 mm 2 mps 470 mmHg 88%
    18:00 -10°C° 0.3 mm 2 mps 469 mmHg 87%
    19:00 -12°C° 0.3 mm 2 mps 469 mmHg 87%
    20:00 -14°C° 0.3 mm 3 mps 469 mmHg 87%
    21:00 -14°C° 0.3 mm 3 mps 469 mmHg 86%
    22:00 -14°C° 0.3 mm 3 mps 469 mmHg 86%
    23:00 -14°C° 0.3 mm 3 mps 468 mmHg 86%
    Show more